TDRS 10

Last updated on Thu Nov 21 2024 00:02:35 GMT+0000 (Coordinated Universal Time)

1 27566U 02055A 24325.44736682 .00000086 00000+0 00000+0 0 9996 2 27566 9.8545 44.2452 0003586 282.3983 83.1501 1.00274242 80487
UTC large
Height (km)
Speed (km/s)
/
Latitude / Longitude
Inclination (degrees)
Orbital Period (minutes)
Azimuth
Elevation
Range (km)
Doppler Factor

Next 0 passes for location: London (51.5072 / 0.1276)

Sorry there are no passes over London.